Tracking 20041 objects as of 22-Nov-2019
Live streaming from Space Station
objects crossing your sky now

SL-8 DEB

Track SL-8 DEB now!
10-day predictions


NORAD ID: 27743
Int'l Code: 1991-009CY
Perigee: 1,495.6 km
Apogee: 1,703.5 km
Inclination: 74.1 °
Period: 118.0 minutes
Semi major axis: 7970 km
RCS: 0.0193 m2 (small)
Launch date: February 12, 1991
Source: Commonwealth of Independent States (former USSR) (CIS)
Launch site: PLESETSK MISSILE AND SPACE COMPLEX (PKMTR)

Note: This is SATELLITE DEBRIS
aabbcc
Your satellite tracking list
Your tracking list is empty




NASA's NSSDC Master Catalog

Two Line Element Set (TLE):
1 27743U 91009CY  19325.05681384 +.00000174 +00000-0 +17675-2 0  9997
2 27743 074.0660 350.9041 0130458 086.2012 306.9469 12.20026013961909
Source of the keplerian elements: AFSPC